This is the latest recevied weather packets stored in our database for station/object KO4ZGL-13. If no packets are shown the sender has not sent any weather packets the latest 1 day(s).
| Time | Temp. | Humidity | Pressure | Rain* | Wind** | Luminosity | Snow |
|---|---|---|---|---|---|---|---|
| 1778004656 | 27.78° C | 50% | 1017.4 hPa | 0 mm | 0.45 m/s, 273° | 707 W/m² | - |
| 1778004351 | 27.22° C | 51% | 1017.4 hPa | 0 mm | 0.89 m/s, 284° | 669 W/m² | - |
| 1778004050 | 27.22° C | 53% | 1017.8 hPa | 0 mm | 0.45 m/s, 316° | 586 W/m² | - |
| 1778003750 | 27.22° C | 52% | 1017.4 hPa | 0 mm | 2.24 m/s, 357° | 642 W/m² | - |
| 1778003447 | 27.22° C | 54% | 1017.4 hPa | 0 mm | 0.45 m/s, 325° | 186 W/m² | - |
| 1778003144 | 27.22° C | 52% | 1017.7 hPa | 0 mm | 1.79 m/s, 331° | 628 W/m² | - |
| 1778002840 | 26.67° C | 52% | 1017.6 hPa | 0 mm | 0.45 m/s, 331° | 752 W/m² | - |
| 1778002537 | 27.22° C | 52% | 1017.7 hPa | 0 mm | 1.79 m/s, 326° | 716 W/m² | - |
| 1778002233 | 27.78° C | 53% | 1017.5 hPa | 0 mm | 0.89 m/s, 357° | 698 W/m² | - |
| 1778001931 | 27.22° C | 55% | 1017.5 hPa | 0 mm | 1.34 m/s, 5° | 710 W/m² | - |
| 1778001627 | 27.22° C | 54% | 1017.9 hPa | 0 mm | 0 m/s | 724 W/m² | - |
| 1778001322 | 26.67° C | 55% | 1018.1 hPa | 0 mm | 0.45 m/s, 315° | 724 W/m² | - |
| 1778001020 | 26.67° C | 54% | 1018 hPa | 0 mm | 0.45 m/s, 4° | 733 W/m² | - |
| 1778000717 | 26.67° C | 56% | 1018 hPa | 0 mm | 1.34 m/s, 33° | 765 W/m² | - |
| 1778000413 | 27.22° C | 53% | 1018 hPa | 0 mm | 0.45 m/s, 355° | 167 W/m² | - |
| 1778000108 | 27.78° C | 55% | 1018 hPa | 0 mm | 0.89 m/s, 325° | 684 W/m² | - |
| 1777999804 | 26.67° C | 58% | 1018.1 hPa | 0 mm | 0 m/s | 725 W/m² | - |
| 1777999500 | 26.11° C | 57% | 1018.4 hPa | 0 mm | 1.34 m/s, 353° | 740 W/m² | - |
| 1777999198 | 26.11° C | 58% | 1018.5 hPa | 0 mm | 1.34 m/s, 357° | 340 W/m² | - |
| 1777998896 | 26.11° C | 58% | 1018.6 hPa | 0 mm | 1.34 m/s, 343° | 747 W/m² | - |
| 1777998596 | 26.11° C | 57% | 1018.7 hPa | 0 mm | 1.34 m/s, 309° | 712 W/m² | - |
| 1777998291 | 26.67° C | 55% | 1018.6 hPa | 0 mm | 1.34 m/s, 331° | 714 W/m² | - |
| 1777997988 | 26.11° C | 58% | 1018.6 hPa | 0 mm | 0.45 m/s, 320° | 714 W/m² | - |
| 1777997684 | 26.11° C | 60% | 1018.6 hPa | 0 mm | 0 m/s | 715 W/m² | - |
| 1777997382 | 26.11° C | 59% | 1018.9 hPa | 0 mm | 0.89 m/s, 17° | 787 W/m² | - |
* Rain latest hour (hover to see other rain measurements)
** Current wind speed in m/s (hover to see current wind gust speed)